SCP
0 0 0 0 0 0 0 0 0 0 0 0 0 0 0 0 0 0 0 0 0 0 0 0 0 0 0 0 0 0 0 0 0 0 0 0 0 0 0 0 0 0 0
0 0 0 0 0 0 0 0 0 0 0 0 0 -0 0 0 0 0 0 0 0 0 0 0 0 -0 -0 -0 -0 -0 -0 -0 0 -0 -0 0 0 0 0 0 0 0 0
0 0 0 0 0 0 0 0 0 0 0 0 0 0 0 0 0 0 0 0 0 0 0 -0 -0 -0 -0 -0 -0 -0 0 -0 -0 -0 -0 0 0 0 0 0 0 0 0
0 0 0 0 0 0 0 0 0 0 0 0 0 0 0 0 0 0 0 0 0 0 0 0 0 0 0 0 0 0 0 -0 -0 -0 -0 0 0 0 0 0 0 0 0
0 0 0 0 0 0 0 0 0 0 0 0 0 0 0 0 0 0 0 0 0 0 0 0 0 0 0 0 0 0 0 0 0 0 0 0 0 0 0 0 0 0 0
0 0 0 0 0 0 0 0 0 0 0 0 0 0 0 0 0 0 0 0 0 0 0 0 0 0 0 0 0 0 0 0 0 0 0 0 0 0 0 0 0 0 0
0 0 0 0 0 0 0 0 0 0 0 0 0 0 0 0 0 0 0 0 0 0 0 0 0 0 0 0 0 0 0 0 0 0 0 0 0 0 0 0 0 0 0
0 0 0 0 0 0 0 0 0 0 0 0 0 0 0 0 0 0 0 0 0 0 0 0 0 0 0 0 0 0 0 0 0 0 0 0 0 0 0 0 0 0 0
0 0 0 0 0 0 0 0 0 0 0 0 0 0 0 0 0 0 0 0 0 0 0 0 0 0 0 0 0 0 0 0 0 0 0 0 0 0 0 0 0 0 0
0 0 0 0 0 0 0 0 0 0 0 0 0 0 0 0 0 0 0 0 0 0 0 0 0 0 0 0 0 0 0 0 0 0 0 0 0 0 0 0 0 0 0
0 0 0 0 0 0 0 0 0 0 0 0 0 0 0 0 0 0 0 0 0 0 0 0 0 0 0 0 0 0 0 0 0 0 0 0 0 0 0 0 0 0 0
-0 -0 0 0 0 0 0 0 0 0 0 0 0 0 0 0 0 0 0 0 0 0 0 0 0 0 0 0 0 0 0 0 0 0 0 0 0 0 0 0 0 0 0
0 -0 -0 0 0 0 0 0 -0 0 0 0 0 0 0 0 0 0 0 0 0 0 0 0 0 0 0 0 0 0 0 0 0 0 0 0 0 0 0 0 0 0 0
0 -0 -0 -0 -0 0 0 0 0 -0 0 0 0 0 0 0 0 0 0 0 0 0 0 0 0 0 0 0 0 0 0 0 0 0 0 0 0 0 0 0 0 0 0
0 -0 -0 -0 0 0 0 0 0 0 -0 -0 -0 0 0 0 0 0 -0 0 0 0 0 0 0 0 0 0 0 0 0 0 0 0 0 0 0 0 0 0 0 0 0
-0 -0 -0 -0 0 0 0 0 -0 -0 -0 -0 -0 -0 0 -0 -0 -0 -0 -0 0 0 0 0 0 0 0 0 0 0 0 0 0 0 0 0 0 0 0 0 0 0 0
-0 -0 -0 0 -0 0 0 -0 -0 -0 -0 -0 0 -0 -0 -0 -0 -0 -0 -0 -0 0 0 0 0 0 0 0 0 0 0 0 0 0 0 0 0 0 0 0 0 0 0
0 -0 -0 0 0 0 0 -0 -0 -0 0 0 0 -0 -0 -0 0 -0 -0 0 0 0 0 0 0 0 0 0 0 0 0 0 0 0 0 0 0 0 0 0 0 0 0
0 0 0 0 0 -0 -0 -0 0 0 0 0 0 0 0 0 0 0 0 0 0 0 0 0 0 0 0 0 0 0 0 0 0 0 0 0 0 0 0 0 0 0 0
0 0 0 0 0 -0 -0 -0 0 0 0 0 0 0 0 0 0 0 0 0 0 0 0 0 0 0 0 0 0 0 0 0 0 0 0 0 0 0 0 0 0 0 0
0 0 0 0 0 0 0 0 0 0 0 0 0 0 0 0 0 0 0 0 0 0 0 0 0 0 0 0 0 0 0 0 0 0 0 0 0 0 0 0 0 0 0
0 0 0 0 0 0 0 0 0 0 0 0 0 0 0 0 0 0 0 0 0 0 0 0 0 0 0 0 0 0 0 0 0 0 0 0 0 0 0 0 0 0 0
0 0 0 0 0 0 0 0 0 0 0 0 0 0 0 0 0 0 0 0 0 0 0 0 0 0 0 0 0 0 0 0 0 0 0 0 0 0 0 0 0 0 0
0 0 0 0 0 0 0 0 0 0 0 -0 0 0 0 0 0 0 0 0 0 0 0 0 0 0 0 0 0 0 0 0 0 0 0 0 0 0 0 0 0 0 0
0 0 0 0 0 0 0 0 0 0 0 0 0 0 0 0 0 0 0 0 0 0 0 0 0 0 0 0 0 0 0 0 0 0 0 0 0 0 0 0 0 0 0
0 0 0 0 0 0 0 0 0 0 0 0 0 0 0 0 0 0 0 0 0 0 0 0 0 0 0 0 0 0 0 0 0 0 0 0 0 0 0 0 0 0 0
Wind_Speed_500mb
32 32 32 35 34 31 25 21 18 19 18 18 16 15 10 13 22 20 27 26 25 23 21 16 14 14 10 7 4 2 3 3 2 5 6 8 15 17 16 13 10 8 12
32 31 31 29 33 33 25 19 19 19 19 17 17 18 6 7 12 15 17 20 18 15 11 9 7 6 7 5 3 4 6 13 9 9 9 10 10 11 11 11 13 15 14
29 27 32 33 34 34 29 24 18 20 20 16 15 15 12 10 9 10 11 14 14 11 7 6 7 7 7 6 6 13 13 10 9 9 9 11 12 14 14 15 17 16 17
26 22 25 32 33 35 30 33 27 27 28 20 16 14 11 12 11 10 9 11 14 17 18 18 19 18 17 16 14 11 12 13 12 12 12 13 13 16 19 21 17 17 13
21 22 27 29 32 32 25 25 28 26 23 27 21 17 14 11 9 11 11 12 14 18 21 23 23 23 22 20 17 15 16 16 14 12 11 11 13 18 21 25 27 21 14
21 25 28 33 31 26 24 26 26 24 29 32 34 32 27 21 15 11 10 14 18 20 21 25 26 25 23 22 20 16 14 14 13 13 12 12 16 22 26 28 28 28 23
20 21 26 30 34 32 25 22 22 25 31 32 33 34 33 32 29 25 20 20 21 21 20 20 19 18 17 15 14 13 14 13 12 13 12 15 18 20 24 24 25 24 22
13 18 24 20 28 28 27 27 25 22 26 26 28 30 29 28 28 27 24 22 21 21 21 21 19 19 20 13 11 10 12 16 16 15 13 13 20 24 30 25 25 25 28
9 16 21 20 20 23 19 19 20 17 16 19 21 26 29 26 24 22 20 19 19 19 19 20 18 14 16 13 14 17 20 17 22 13 14 17 15 16 21 19 26 30 32
9 16 22 24 24 19 15 18 15 14 15 13 13 15 18 18 23 21 16 14 13 13 13 13 13 11 11 11 16 19 23 25 18 14 13 16 24 26 25 24 21 20 24
6 11 16 23 27 29 18 17 16 17 11 9 7 8 8 10 10 15 13 13 15 13 13 9 16 12 13 15 16 20 29 23 16 17 21 26 25 17 17 22 27 34 31
2 7 16 18 23 23 22 24 19 17 17 16 13 10 9 8 7 10 6 9 17 14 15 15 18 15 13 14 23 28 22 16 18 24 29 20 11 11 18 24 28 25 18
3 6 10 22 24 27 29 15 17 23 24 16 16 15 14 14 13 10 7 7 13 7 11 12 10 8 14 22 23 21 20 19 21 26 23 17 13 14 19 20 24 24 21
9 9 9 16 27 28 31 18 17 19 25 17 11 10 9 10 12 14 13 14 14 12 12 11 12 15 19 21 19 21 23 23 20 22 23 20 17 17 19 22 26 32 29
7 10 13 18 23 30 29 20 15 14 17 22 16 8 3 6 9 5 7 11 13 14 14 17 19 20 20 21 19 19 22 24 20 18 21 24 21 18 19 19 25 34 30
12 13 17 16 22 26 29 22 15 14 12 15 18 13 6 7 7 5 4 6 9 14 19 22 25 21 19 22 21 21 24 27 24 19 21 25 24 21 18 17 24 33 30
17 15 18 15 24 28 27 24 17 17 15 13 16 19 15 11 13 14 16 18 18 20 23 26 22 19 20 23 24 27 30 31 27 19 19 22 25 23 19 17 22 30 31
20 19 21 20 26 31 35 20 17 16 18 18 18 20 18 15 14 17 21 22 22 24 24 21 16 17 21 25 28 29 28 25 21 16 16 20 24 21 20 18 20 27 30
22 19 19 19 24 32 28 22 18 17 18 20 18 18 17 12 13 15 19 22 19 16 13 14 16 20 26 29 29 25 23 22 18 14 14 17 21 22 21 17 16 23 28
27 23 23 21 22 29 22 18 19 19 18 23 17 15 14 10 9 14 18 19 17 14 12 15 20 24 25 25 23 22 21 20 17 14 14 18 22 22 19 14 15 21 25
30 26 23 23 24 24 19 15 20 20 20 21 17 19 21 18 16 17 16 18 17 13 13 14 16 20 21 20 21 20 20 18 16 14 14 16 20 20 17 13 15 20 23
34 32 27 24 20 22 15 13 21 28 26 24 21 22 24 24 22 18 16 16 17 14 13 14 16 18 18 19 21 20 19 18 16 13 13 15 19 20 16 14 16 19 22
41 36 35 31 24 23 25 24 20 22 22 20 17 21 24 21 20 22 19 18 16 16 15 15 16 17 20 22 22 21 19 18 17 14 13 13 17 19 13 13 15 16 19
50 46 40 34 31 27 27 34 32 25 30 29 30 28 21 19 18 18 20 22 22 20 18 17 18 19 21 22 23 21 20 19 18 15 14 13 14 18 14 13 16 14 15
51 53 48 43 40 32 23 26 25 24 27 26 26 29 28 34 25 18 17 18 22 23 22 20 20 21 21 22 23 22 22 20 19 17 15 14 13 16 17 14 18 12 14
43 48 48 44 40 38 37 31 31 37 37 35 32 30 30 33 35 29 20 20 17 20 21 22 20 20 22 22 23 24 22 21 21 20 18 17 17 18 18 15 15 13 15
Wind_Direction_500mb
6 7 5 10 13 8 9 10 11 11 12 11 18 21 39 62 62 62 67 77 77 78 79 80 84 82 75 67 57 35 12 10 40 63 45 53 48 46 41 38 24 346 321
0 3 8 16 17 13 17 15 20 20 19 13 11 9 35 86 73 63 75 73 72 68 63 56 45 36 12 5 16 18 49 88 60 59 63 55 29 29 17 358 338 327 321
10 22 34 36 29 24 30 32 25 21 16 7 4 24 77 91 84 70 62 41 32 21 4 347 340 349 16 39 77 101 77 56 51 40 17 4 7 359 358 351 342 334 315
13 21 34 33 31 27 42 39 38 35 28 28 37 49 73 73 73 68 55 46 43 48 68 76 81 81 71 74 100 82 46 42 37 31 26 27 16 7 358 355 360 353 360
26 42 26 15 14 11 36 36 32 40 34 41 50 61 63 71 76 81 78 63 70 73 80 78 77 79 77 78 80 71 57 50 45 39 23 13 3 359 358 355 352 348 354
44 30 21 23 21 21 33 41 45 45 54 60 63 63 62 67 76 85 91 87 88 89 86 82 80 76 69 64 60 49 35 21 16 11 2 355 352 345 343 345 344 345 345
38 32 23 27 27 33 40 45 52 60 71 61 60 60 60 62 62 68 88 96 91 82 74 70 60 58 52 44 38 29 18 7 3 358 351 338 336 335 337 335 336 336 330
23 19 25 36 23 32 48 57 60 74 53 63 57 58 55 60 67 72 76 76 72 70 67 66 62 59 49 52 37 4 351 344 334 330 338 324 323 325 320 317 328 328 326
26 17 24 17 15 19 22 42 49 44 36 49 58 59 61 62 66 69 70 70 69 64 63 60 50 29 14 16 22 18 6 7 2 352 330 332 331 338 333 311 315 316 322
36 26 19 17 23 2 11 11 12 17 27 40 49 52 47 50 52 54 64 58 46 41 35 30 9 355 353 359 344 343 349 346 337 338 342 339 333 328 325 320 327 334 330
31 12 9 14 19 26 2 347 346 342 354 359 14 6 13 27 16 15 38 48 28 2 340 329 355 330 326 316 328 336 338 342 329 327 328 327 321 319 332 335 339 333 324
329 332 1 1 9 9 8 10 354 332 315 314 301 319 327 329 338 353 48 357 349 347 360 16 355 352 347 340 336 342 348 347 338 333 334 340 329 314 333 340 347 350 348
252 315 352 341 350 356 355 337 345 353 347 297 284 288 293 294 291 295 277 299 336 337 349 350 346 342 340 338 336 345 346 336 333 344 354 349 344 330 339 340 347 351 322
285 300 303 320 333 352 355 348 337 334 351 354 326 306 301 303 288 272 269 275 295 298 319 330 323 321 330 340 333 339 350 352 344 341 353 348 337 332 333 335 339 344 342
281 294 308 319 319 340 345 346 335 329 332 350 359 1 347 355 355 328 271 266 276 279 299 312 310 315 331 343 342 337 341 345 343 332 337 347 339 332 333 329 339 351 353
267 283 307 312 323 328 317 330 315 315 318 324 339 345 319 322 359 3 331 311 293 295 299 304 311 314 329 342 347 335 332 334 336 329 325 337 342 339 338 329 341 353 356
265 290 306 311 312 323 321 313 310 303 303 305 315 316 300 309 305 306 307 299 294 296 296 303 307 313 324 331 333 330 329 327 327 325 319 325 337 334 335 327 339 354 0
268 288 300 311 321 316 312 317 309 306 304 294 300 316 313 287 298 305 317 311 298 294 292 291 303 313 321 324 323 323 328 332 330 320 312 321 333 333 336 327 334 354 0
265 274 291 306 326 324 315 294 302 301 321 303 284 301 314 295 297 310 316 315 312 309 290 286 301 311 318 322 324 326 330 333 333 325 315 321 332 332 332 327 326 347 354
257 268 285 307 302 320 319 316 320 290 300 328 289 292 294 299 307 314 321 323 319 319 310 296 302 311 318 324 326 328 330 333 334 329 315 321 331 335 335 324 321 340 354
253 259 278 291 290 316 322 288 295 296 304 319 314 293 293 292 296 297 310 328 325 317 318 315 317 325 328 328 329 329 329 328 325 324 317 318 331 335 333 317 321 337 348
254 255 268 284 284 286 313 324 284 293 304 299 308 297 301 304 293 297 297 313 335 322 309 314 321 333 337 335 335 331 330 327 316 315 317 320 333 338 334 318 317 332 345
255 260 262 270 272 273 282 289 315 311 292 292 297 305 299 313 307 292 291 287 310 330 314 303 313 323 331 335 335 334 331 326 316 302 305 310 330 339 339 333 318 328 346
252 257 259 266 268 268 273 288 273 293 276 287 276 281 293 311 318 316 290 281 284 302 315 307 298 304 321 329 333 331 328 324 319 306 299 302 312 335 327 333 335 315 334
252 249 256 260 260 257 253 253 262 274 277 279 289 275 280 286 290 310 317 295 283 291 295 304 291 292 305 317 328 329 327 324 320 313 299 298 293 317 325 308 329 320 313
251 246 249 254 254 252 252 255 261 265 265 280 288 282 283 276 281 282 297 311 305 295 287 294 295 285 291 303 318 325 325 322 319 315 307 293 286 294 306 297 312 330 311
Wind_Speed_850mb
32 32 32 35 34 31 25 21 18 19 18 18 16 15 10 13 22 20 27 26 25 23 21 16 14 14 10 7 4 2 3 3 2 5 6 8 15 17 16 13 10 8 12
32 31 31 29 33 33 25 19 19 19 19 17 17 18 6 7 12 15 17 20 18 15 11 9 7 6 7 5 3 4 6 13 9 9 9 10 10 11 11 11 13 15 14
29 27 32 33 34 34 29 24 18 20 20 16 15 15 12 10 9 10 11 14 14 11 7 6 7 7 7 6 6 13 13 10 9 9 9 11 12 14 14 15 17 16 17
26 22 25 32 33 35 30 33 27 27 28 20 16 14 11 12 11 10 9 11 14 17 18 18 19 18 17 16 14 11 12 13 12 12 12 13 13 16 19 21 17 17 13
21 22 27 29 32 32 25 25 28 26 23 27 21 17 14 11 9 11 11 12 14 18 21 23 23 23 22 20 17 15 16 16 14 12 11 11 13 18 21 25 27 21 14
21 25 28 33 31 26 24 26 26 24 29 32 34 32 27 21 15 11 10 14 18 20 21 25 26 25 23 22 20 16 14 14 13 13 12 12 16 22 26 28 28 28 23
20 21 26 30 34 32 25 22 22 25 31 32 33 34 33 32 29 25 20 20 21 21 20 20 19 18 17 15 14 13 14 13 12 13 12 15 18 20 24 24 25 24 22
13 18 24 20 28 28 27 27 25 22 26 26 28 30 29 28 28 27 24 22 21 21 21 21 19 19 20 13 11 10 12 16 16 15 13 13 20 24 30 25 25 25 28
9 16 21 20 20 23 19 19 20 17 16 19 21 26 29 26 24 22 20 19 19 19 19 20 18 14 16 13 14 17 20 17 22 13 14 17 15 16 21 19 26 30 32
9 16 22 24 24 19 15 18 15 14 15 13 13 15 18 18 23 21 16 14 13 13 13 13 13 11 11 11 16 19 23 25 18 14 13 16 24 26 25 24 21 20 24
6 11 16 23 27 29 18 17 16 17 11 9 7 8 8 10 10 15 13 13 15 13 13 9 16 12 13 15 16 20 29 23 16 17 21 26 25 17 17 22 27 34 31
2 7 16 18 23 23 22 24 19 17 17 16 13 10 9 8 7 10 6 9 17 14 15 15 18 15 13 14 23 28 22 16 18 24 29 20 11 11 18 24 28 25 18
3 6 10 22 24 27 29 15 17 23 24 16 16 15 14 14 13 10 7 7 13 7 11 12 10 8 14 22 23 21 20 19 21 26 23 17 13 14 19 20 24 24 21
9 9 9 16 27 28 31 18 17 19 25 17 11 10 9 10 12 14 13 14 14 12 12 11 12 15 19 21 19 21 23 23 20 22 23 20 17 17 19 22 26 32 29
7 10 13 18 23 30 29 20 15 14 17 22 16 8 3 6 9 5 7 11 13 14 14 17 19 20 20 21 19 19 22 24 20 18 21 24 21 18 19 19 25 34 30
12 13 17 16 22 26 29 22 15 14 12 15 18 13 6 7 7 5 4 6 9 14 19 22 25 21 19 22 21 21 24 27 24 19 21 25 24 21 18 17 24 33 30
17 15 18 15 24 28 27 24 17 17 15 13 16 19 15 11 13 14 16 18 18 20 23 26 22 19 20 23 24 27 30 31 27 19 19 22 25 23 19 17 22 30 31
20 19 21 20 26 31 35 20 17 16 18 18 18 20 18 15 14 17 21 22 22 24 24 21 16 17 21 25 28 29 28 25 21 16 16 20 24 21 20 18 20 27 30
22 19 19 19 24 32 28 22 18 17 18 20 18 18 17 12 13 15 19 22 19 16 13 14 16 20 26 29 29 25 23 22 18 14 14 17 21 22 21 17 16 23 28
27 23 23 21 22 29 22 18 19 19 18 23 17 15 14 10 9 14 18 19 17 14 12 15 20 24 25 25 23 22 21 20 17 14 14 18 22 22 19 14 15 21 25
30 26 23 23 24 24 19 15 20 20 20 21 17 19 21 18 16 17 16 18 17 13 13 14 16 20 21 20 21 20 20 18 16 14 14 16 20 20 17 13 15 20 23
34 32 27 24 20 22 15 13 21 28 26 24 21 22 24 24 22 18 16 16 17 14 13 14 16 18 18 19 21 20 19 18 16 13 13 15 19 20 16 14 16 19 22
41 36 35 31 24 23 25 24 20 22 22 20 17 21 24 21 20 22 19 18 16 16 15 15 16 17 20 22 22 21 19 18 17 14 13 13 17 19 13 13 15 16 19
50 46 40 34 31 27 27 34 32 25 30 29 30 28 21 19 18 18 20 22 22 20 18 17 18 19 21 22 23 21 20 19 18 15 14 13 14 18 14 13 16 14 15
51 53 48 43 40 32 23 26 25 24 27 26 26 29 28 34 25 18 17 18 22 23 22 20 20 21 21 22 23 22 22 20 19 17 15 14 13 16 17 14 18 12 14
43 48 48 44 40 38 37 31 31 37 37 35 32 30 30 33 35 29 20 20 17 20 21 22 20 20 22 22 23 24 22 21 21 20 18 17 17 18 18 15 15 13 15
Wind_Direction_850mb
6 7 5 10 13 8 9 10 11 11 12 11 18 21 39 62 62 62 67 77 77 78 79 80 84 82 75 67 57 35 12 10 40 63 45 53 48 46 41 38 24 346 321
0 3 8 16 17 13 17 15 20 20 19 13 11 9 35 86 73 63 75 73 72 68 63 56 45 36 12 5 16 18 49 88 60 59 63 55 29 29 17 358 338 327 321
10 22 34 36 29 24 30 32 25 21 16 7 4 24 77 91 84 70 62 41 32 21 4 347 340 349 16 39 77 101 77 56 51 40 17 4 7 359 358 351 342 334 315
13 21 34 33 31 27 42 39 38 35 28 28 37 49 73 73 73 68 55 46 43 48 68 76 81 81 71 74 100 82 46 42 37 31 26 27 16 7 358 355 360 353 360
26 42 26 15 14 11 36 36 32 40 34 41 50 61 63 71 76 81 78 63 70 73 80 78 77 79 77 78 80 71 57 50 45 39 23 13 3 359 358 355 352 348 354
44 30 21 23 21 21 33 41 45 45 54 60 63 63 62 67 76 85 91 87 88 89 86 82 80 76 69 64 60 49 35 21 16 11 2 355 352 345 343 345 344 345 345
38 32 23 27 27 33 40 45 52 60 71 61 60 60 60 62 62 68 88 96 91 82 74 70 60 58 52 44 38 29 18 7 3 358 351 338 336 335 337 335 336 336 330
23 19 25 36 23 32 48 57 60 74 53 63 57 58 55 60 67 72 76 76 72 70 67 66 62 59 49 52 37 4 351 344 334 330 338 324 323 325 320 317 328 328 326
26 17 24 17 15 19 22 42 49 44 36 49 58 59 61 62 66 69 70 70 69 64 63 60 50 29 14 16 22 18 6 7 2 352 330 332 331 338 333 311 315 316 322
36 26 19 17 23 2 11 11 12 17 27 40 49 52 47 50 52 54 64 58 46 41 35 30 9 355 353 359 344 343 349 346 337 338 342 339 333 328 325 320 327 334 330
31 12 9 14 19 26 2 347 346 342 354 359 14 6 13 27 16 15 38 48 28 2 340 329 355 330 326 316 328 336 338 342 329 327 328 327 321 319 332 335 339 333 324
329 332 1 1 9 9 8 10 354 332 315 314 301 319 327 329 338 353 48 357 349 347 360 16 355 352 347 340 336 342 348 347 338 333 334 340 329 314 333 340 347 350 348
252 315 352 341 350 356 355 337 345 353 347 297 284 288 293 294 291 295 277 299 336 337 349 350 346 342 340 338 336 345 346 336 333 344 354 349 344 330 339 340 347 351 322
285 300 303 320 333 352 355 348 337 334 351 354 326 306 301 303 288 272 269 275 295 298 319 330 323 321 330 340 333 339 350 352 344 341 353 348 337 332 333 335 339 344 342
281 294 308 319 319 340 345 346 335 329 332 350 359 1 347 355 355 328 271 266 276 279 299 312 310 315 331 343 342 337 341 345 343 332 337 347 339 332 333 329 339 351 353
267 283 307 312 323 328 317 330 315 315 318 324 339 345 319 322 359 3 331 311 293 295 299 304 311 314 329 342 347 335 332 334 336 329 325 337 342 339 338 329 341 353 356
265 290 306 311 312 323 321 313 310 303 303 305 315 316 300 309 305 306 307 299 294 296 296 303 307 313 324 331 333 330 329 327 327 325 319 325 337 334 335 327 339 354 0
268 288 300 311 321 316 312 317 309 306 304 294 300 316 313 287 298 305 317 311 298 294 292 291 303 313 321 324 323 323 328 332 330 320 312 321 333 333 336 327 334 354 0
265 274 291 306 326 324 315 294 302 301 321 303 284 301 314 295 297 310 316 315 312 309 290 286 301 311 318 322 324 326 330 333 333 325 315 321 332 332 332 327 326 347 354
257 268 285 307 302 320 319 316 320 290 300 328 289 292 294 299 307 314 321 323 319 319 310 296 302 311 318 324 326 328 330 333 334 329 315 321 331 335 335 324 321 340 354
253 259 278 291 290 316 322 288 295 296 304 319 314 293 293 292 296 297 310 328 325 317 318 315 317 325 328 328 329 329 329 328 325 324 317 318 331 335 333 317 321 337 348
254 255 268 284 284 286 313 324 284 293 304 299 308 297 301 304 293 297 297 313 335 322 309 314 321 333 337 335 335 331 330 327 316 315 317 320 333 338 334 318 317 332 345
255 260 262 270 272 273 282 289 315 311 292 292 297 305 299 313 307 292 291 287 310 330 314 303 313 323 331 335 335 334 331 326 316 302 305 310 330 339 339 333 318 328 346
252 257 259 266 268 268 273 288 273 293 276 287 276 281 293 311 318 316 290 281 284 302 315 307 298 304 321 329 333 331 328 324 319 306 299 302 312 335 327 333 335 315 334
252 249 256 260 260 257 253 253 262 274 277 279 289 275 280 286 290 310 317 295 283 291 295 304 291 292 305 317 328 329 327 324 320 313 299 298 293 317 325 308 329 320 313
251 246 249 254 254 252 252 255 261 265 265 280 288 282 283 276 281 282 297 311 305 295 287 294 295 285 291 303 318 325 325 322 319 315 307 293 286 294 306 297 312 330 311